Theta_e
345 342 341 342 343 344 343 343 343 342 338 338 337 339 343 345 347 346 346 346 345 345 344 345 345 345 342 343 343 339 337 336 331 333 336 337 336 337 337 338 339 339 337
345 341 342 342 345 343 342 342 342 339 336 338 337 336 338 338 339 339 340 340 339 339 338 340 338 340 340 338 334 333 333 333 332 329 333 335 333 330 329 328 331 332 329
344 341 342 343 344 343 341 341 341 339 334 335 338 335 334 332 334 335 332 331 332 335 336 335 334 335 334 333 331 331 332 333 333 331 329 333 329 327 323 322 321 321 324
344 339 341 341 344 343 341 340 337 335 334 335 336 336 335 336 335 332 333 331 328 327 328 328 328 327 326 327 327 328 328 330 331 330 329 330 326 323 322 319 315 317 316
343 341 340 341 343 341 338 334 337 336 334 334 335 336 335 330 329 332 333 329 325 321 321 324 324 325 324 324 323 323 325 326 326 325 325 325 320 322 321 319 315 314 315
344 343 343 343 341 339 333 334 335 334 332 333 331 331 330 324 319 322 329 328 327 326 322 317 315 315 316 316 317 320 322 324 325 324 319 316 313 315 317 318 315 314 309
344 343 343 342 339 334 332 331 330 331 328 329 329 329 326 323 314 315 321 323 321 321 320 319 317 315 319 319 316 317 315 316 317 318 314 314 313 315 320 318 316 312 310
344 343 342 342 336 332 329 327 327 329 324 324 324 325 322 314 310 311 317 324 319 319 319 319 318 318 317 318 317 315 314 314 316 315 316 315 313 312 317 316 312 310 310
340 343 341 341 332 328 324 324 326 326 323 318 318 320 320 315 307 309 318 319 317 317 317 319 318 316 310 312 317 314 314 311 309 310 310 310 310 310 313 319 313 315 313
326 325 337 335 331 326 322 323 322 324 318 315 312 312 311 315 305 306 315 317 316 314 315 313 308 311 306 307 316 316 312 313 311 311 310 310 312 309 310 314 311 312 311
323 320 328 331 329 325 323 320 318 318 317 312 311 310 309 310 308 304 306 317 314 314 313 310 307 302 300 301 305 313 311 308 304 302 304 304 304 303 303 307 313 309 307
314 313 313 314 314 315 316 313 315 318 315 310 309 305 308 309 306 304 304 306 310 309 306 306 304 298 297 298 301 299 300 303 304 304 303 301 301 301 302 305 310 311 312
312 310 310 310 310 311 310 311 309 310 307 305 305 306 306 308 308 303 302 304 306 308 306 302 300 298 298 300 299 300 302 305 303 301 300 300 300 302 305 306 307 310 313
309 309 308 308 309 308 309 310 307 306 305 305 305 306 306 306 306 307 306 306 306 304 304 304 301 301 300 302 304 304 303 303 301 300 300 300 301 301 301 303 302 303 304
307 306 306 305 303 301 300 303 305 304 306 307 308 307 305 303 303 301 302 306 306 303 305 305 304 303 302 302 302 302 303 303 301 301 300 299 299 300 300 302 301 301 300
307 307 307 305 303 301 300 297 297 297 295 294 295 303 301 296 294 294 293 293 294 295 304 303 302 302 302 302 302 301 302 300 300 300 299 299 298 298 299 300 301 300 299
304 304 304 305 306 304 304 305 304 296 294 293 293 293 295 295 292 292 292 292 293 297 302 302 302 303 302 302 302 301 299 300 302 300 299 298 298 298 300 298 299 300 300
305 303 309 308 306 304 303 303 303 303 303 303 294 296 291 291 291 292 292 294 301 302 303 303 302 302 302 301 302 301 300 300 300 300 300 299 299 298 298 298 298 298 300
307 304 303 301 301 300 301 300 300 300 301 301 302 297 295 291 291 291 292 305 304 303 303 303 304 303 302 302 302 303 304 302 302 301 302 301 300 300 299 299 299 293 294
302 300 302 302 301 301 301 300 301 301 301 301 302 303 303 299 302 303 304 305 304 304 304 304 304 303 302 302 302 302 303 301 301 300 301 302 302 301 299 298 299 298 300
304 303 303 304 304 304 303 302 302 302 303 302 303 302 294 301 303 303 304 304 304 303 303 304 303 303 303 303 302 302 302 303 301 300 300 300 301 299 300 299 298 299 299
307 306 306 306 306 305 305 305 304 303 302 302 302 301 291 300 302 302 304 304 303 304 304 304 302 302 302 302 302 302 301 301 302 300 300 299 299 299 298 297 297 297 297
309 308 308 307 307 304 304 305 305 305 304 303 303 302 301 301 303 303 304 304 304 303 303 302 302 302 303 303 304 303 301 301 302 302 300 299 298 298 296 296 297 296 296
311 312 311 312 310 309 309 309 308 301 306 307 306 306 305 304 304 304 305 305 304 304 304 304 303 302 303 303 304 303 303 303 302 302 302 300 298 295 294 296 296 296 296
315 313 311 311 310 310 308 308 309 309 308 308 307 307 307 307 307 306 306 306 305 304 304 305 304 304 304 304 304 303 296 288 298 294 301 300 298 295 295 296 297 296 296
309 310 309 309 310 311 311 310 309 308 308 309 309 309 308 307 307 307 306 305 304 304 305 305 305 305 305 305 305 298 287 285 292 287 299 297 296 295 294 296 297 296 296
Wind_Speed
6 5 4 4 4 4 4 6 7 7 7 8 8 6 3 3 1 2 3 4 4 4 4 6 7 7 6 6 5 3 2 1 2 1 1 1 2 4 5 6 6 6 7
6 5 5 3 1 3 5 6 7 8 7 8 9 8 8 7 7 4 3 3 2 1 1 2 3 2 4 2 2 3 3 1 2 4 1 1 2 4 5 6 6 7 7
6 6 5 3 1 3 4 5 7 8 8 9 9 10 9 8 8 8 7 7 7 6 5 6 6 2 2 1 1 1 2 2 2 1 1 1 3 2 5 6 7 6 8
6 6 5 4 1 2 4 6 7 7 9 10 10 10 10 9 9 7 9 9 9 9 8 8 8 7 6 5 4 4 3 2 1 1 1 0 2 3 2 2 3 6 6
7 7 6 5 3 4 5 6 7 8 8 8 9 10 11 10 7 9 10 10 9 10 10 9 9 13 16 11 3 4 3 2 2 3 2 3 4 2 3 2 3 5 7
7 7 6 6 6 5 5 6 7 8 9 8 9 9 10 7 10 11 9 9 9 10 10 9 7 11 15 17 16 16 8 3 3 2 3 4 3 2 2 2 4 2 3
7 6 6 7 8 7 6 5 6 6 8 9 8 9 9 9 12 12 10 9 9 9 9 9 10 8 11 11 12 15 20 21 18 7 8 6 5 6 4 3 3 3 2
8 8 7 9 9 8 7 6 7 6 7 7 7 8 9 8 10 11 10 10 10 11 11 11 10 10 10 10 12 15 16 15 13 10 11 8 5 3 6 3 4 5 4
5 10 10 9 10 9 8 6 6 7 7 7 7 8 8 7 8 6 8 9 10 11 11 10 10 10 8 6 11 11 12 12 12 14 14 14 17 17 10 2 3 2 5
3 4 4 8 9 10 9 7 5 7 8 8 9 8 7 8 7 6 5 7 10 9 10 11 15 11 10 9 8 8 9 9 8 9 9 10 12 12 15 10 6 5 2
4 3 3 7 10 11 10 7 7 8 9 9 10 8 8 6 6 7 6 7 7 8 8 7 7 11 11 11 8 7 8 6 9 7 6 7 8 8 7 8 7 6 5
6 7 7 6 6 7 10 8 7 9 8 8 9 7 6 7 8 10 13 9 9 9 8 6 7 12 13 11 9 9 8 6 5 6 7 7 7 7 7 7 7 8 7
7 8 8 8 7 7 9 8 5 8 7 5 5 6 6 5 7 12 12 12 11 8 7 10 10 8 8 12 11 7 5 6 6 6 7 6 6 6 4 3 5 4 8
7 7 6 7 8 7 6 4 6 5 5 4 5 6 6 5 5 4 5 6 9 9 10 7 10 11 10 7 6 7 7 7 6 6 6 5 5 5 6 5 5 4 4
7 6 6 6 7 8 7 5 5 4 3 3 5 5 6 5 4 5 4 6 6 7 7 5 5 6 6 6 6 5 5 5 6 5 5 5 5 5 5 5 5 4 4
8 6 6 6 6 6 5 7 17 12 11 10 10 6 6 9 7 6 7 8 8 3 4 5 4 4 4 4 4 4 4 5 5 5 5 5 5 5 4 4 4 4 4
7 7 6 6 7 7 6 7 8 8 15 12 10 8 9 9 7 7 8 8 5 5 5 4 4 3 3 3 3 3 4 5 3 4 5 4 4 4 2 4 4 3 3
8 5 7 7 7 6 6 6 5 6 6 6 7 5 7 7 5 6 7 8 5 3 4 4 4 3 3 2 2 3 4 4 3 3 4 4 4 4 3 3 3 4 3
8 7 7 6 6 6 6 6 5 5 6 6 6 4 4 5 4 5 3 3 3 3 3 3 3 4 3 3 2 2 1 2 1 2 2 2 3 3 2 2 2 1 4
8 9 6 6 6 6 5 5 5 5 5 5 5 5 5 4 5 4 4 4 4 4 4 4 4 4 4 4 3 3 2 4 4 4 2 1 1 2 2 2 2 3 1
7 7 5 5 5 4 4 4 4 4 4 4 4 4 2 4 3 3 2 3 4 4 4 4 4 6 6 5 5 4 3 1 3 4 4 4 2 3 2 2 3 2 2
5 5 5 4 4 4 4 4 4 4 4 5 5 6 7 6 5 5 5 4 5 4 4 4 4 5 5 5 5 6 4 3 3 4 5 5 4 4 3 4 3 3 3
5 5 4 4 4 4 5 6 6 6 6 6 6 6 7 8 7 7 7 6 5 5 5 5 5 5 4 5 5 5 6 5 5 5 6 6 5 5 4 5 4 5 4
4 5 5 5 6 7 7 7 8 8 8 8 8 8 8 8 8 9 8 6 6 7 7 6 6 7 5 6 6 6 5 6 5 6 8 6 6 4 6 5 5 5 5
4 4 5 5 5 5 6 7 7 7 7 8 8 8 8 9 9 9 8 8 8 8 9 8 7 9 11 11 10 9 2 5 7 2 6 7 7 7 7 6 6 5 6
1 3 4 4 4 5 5 5 5 6 7 6 7 8 8 8 9 10 9 9 9 10 10 9 10 14 14 12 13 9 8 8 8 8 6 6 6 7 7 8 8 6 6
Wind_Direction
136 154 127 78 22 357 9 25 22 21 13 28 33 22 8 316 291 179 217 200 211 216 219 229 227 213 199 195 183 162 170 158 195 130 189 347 47 46 37 52 53 48 45
150 149 125 112 27 12 27 37 35 37 34 38 47 47 45 48 37 36 43 33 3 336 243 200 158 154 175 144 190 192 196 207 189 209 213 150 78 51 50 54 61 61 53
163 156 149 155 133 66 51 54 47 50 48 49 56 55 57 54 62 63 64 59 54 56 70 75 57 48 110 133 115 127 155 153 200 140 111 54 70 96 69 44 46 49 53
169 167 178 183 185 91 89 74 64 54 56 54 56 63 57 56 66 65 70 71 66 61 60 62 62 58 52 47 52 39 22 63 53 125 123 80 116 72 80 97 62 41 49
176 189 191 162 188 142 106 90 87 79 70 59 64 63 63 59 49 64 73 75 73 66 56 57 63 71 66 61 55 31 25 35 39 43 47 55 24 38 14 79 82 83 59
195 206 174 152 172 158 133 119 104 97 87 76 70 68 65 57 51 61 80 79 77 79 78 76 70 64 67 65 64 60 53 29 70 74 47 64 36 10 350 113 131 164 104
209 205 179 169 174 158 150 133 109 102 98 88 75 74 66 63 52 63 72 83 80 78 79 79 78 72 74 78 74 71 60 56 57 64 72 43 39 3 350 72 64 68 84
206 203 185 183 171 149 154 149 133 127 98 89 81 76 75 62 55 68 72 81 77 74 74 76 74 70 59 77 79 73 66 60 59 69 68 61 53 17 49 60 88 88 78
224 215 201 188 166 159 153 157 133 127 110 93 85 89 96 88 57 54 98 98 90 79 73 65 77 76 48 54 85 85 83 85 75 70 71 65 56 46 30 126 114 207 113
332 325 246 162 164 156 146 150 136 114 107 104 90 82 71 87 55 43 93 112 105 94 77 70 54 69 50 23 82 94 86 75 75 71 61 55 50 60 40 41 39 63 79
348 4 74 149 159 150 143 139 137 124 124 118 107 90 73 60 59 56 42 114 118 112 99 88 69 61 62 54 55 84 85 90 86 79 80 72 63 56 46 41 30 29 64
53 56 57 76 104 126 131 129 135 133 118 109 106 87 75 74 68 70 71 61 90 107 102 88 80 66 59 51 77 74 81 105 101 75 62 51 44 39 40 35 41 43 49
82 78 80 77 83 98 109 114 98 113 109 105 110 107 102 83 81 75 78 84 74 86 88 89 83 77 98 84 57 57 84 72 66 68 61 51 38 37 32 68 82 88 77
86 85 85 94 89 77 68 92 107 103 100 110 122 127 114 108 104 93 89 92 91 100 119 92 87 87 77 92 95 77 67 61 64 67 63 51 43 41 49 29 46 42 59
81 79 79 79 83 78 57 42 70 46 85 137 133 135 130 132 115 103 122 129 126 96 128 130 108 100 98 93 85 78 79 77 73 64 55 46 43 47 55 36 28 33 42
108 107 100 105 106 101 102 80 50 58 58 62 54 101 83 93 112 103 96 99 100 165 147 127 114 100 93 91 87 89 83 85 77 70 55 40 38 40 39 45 27 22 22
115 124 125 128 122 120 118 111 106 68 67 55 66 69 71 112 118 121 123 116 118 181 130 126 121 112 112 96 85 88 94 88 94 72 53 51 45 59 13 40 23 23 38
117 130 121 111 111 113 104 107 116 122 120 115 58 69 81 90 98 148 152 160 140 146 133 143 145 144 144 128 131 122 119 141 118 92 67 59 48 26 28 24 20 5 7
126 111 106 105 98 99 109 108 108 110 114 124 137 156 118 89 103 140 247 251 162 173 171 186 175 170 175 160 148 167 216 173 141 169 102 50 33 360 34 357 38 333 301
111 103 111 118 126 120 123 120 120 120 132 148 162 154 164 192 199 197 198 227 233 242 220 226 200 201 195 201 193 197 202 193 201 216 207 214 340 341 345 325 341 328 256
131 139 107 130 136 140 140 140 138 147 152 169 170 169 95 242 211 208 207 204 230 236 234 239 229 215 214 208 215 223 230 223 213 222 225 228 245 300 300 266 279 268 223
147 152 168 180 170 180 179 177 184 195 195 203 187 183 183 233 240 237 248 242 237 239 234 235 258 243 229 223 217 236 248 253 231 231 234 237 242 263 284 247 250 239 230
184 194 199 217 225 218 218 230 217 218 218 217 220 213 196 226 232 238 248 248 243 233 216 220 248 233 222 214 222 237 262 260 261 242 239 233 239 259 255 241 238 225 237
222 238 256 265 250 244 241 239 236 227 238 228 227 232 228 229 235 236 242 242 232 224 220 219 230 237 219 223 221 234 246 261 258 237 230 233 241 213 248 234 231 230 256
221 259 281 280 281 258 244 238 242 237 234 230 235 236 237 233 235 238 236 230 230 224 222 222 229 230 233 235 247 242 195 151 235 218 209 233 249 241 238 233 228 236 247
230 286 289 307 312 303 277 254 236 229 236 239 243 246 245 242 243 243 235 225 224 225 226 222 229 232 237 239 240 229 147 180 198 214 236 233 231 229 228 226 221 239 230